Location: Eskola
(61.4833°N, 22.7000°E)
Time: 06:25:17
(UTC+00:00)

Daily predictions for brighter satellites

Satellite Brightness Start Highest point End
(mag) Time Altitude Azimuth Time Altitude Azimuth Time Altitude Azimuth
Cosmos 1954 Rocket 4.1 19:12:24 10° SSW 19:17:41 67° ESE 19:22:58 10° NE
Meteor 1-20 Rocket 4.4 19:12:27 10° S 19:18:15 67° E 19:24:04 10° NNE
Spot 2 Rocket 3.7 19:13:09 10° SSE 19:18:16 80° WSW 19:23:24 10° NNW
Okean 1-7 3.1 19:14:55 10° NNW 19:19:17 89° E 19:23:35 10° SSE
Cosmos 1515 3.8 19:15:35 10° NNW 19:19:27 84° WSW 19:23:16 10° S
Cosmos 44 Rocket 3.4 19:14:52 10° WNW 19:19:49 90° WSW 19:24:53 10° ESE
Cosmos 405 Rocket 2.8 19:18:40 10° S 19:22:20 54° E 19:26:05 10° NNE
Cosmos 1869 Rocket 4.4 19:21:53 10° SSE 19:25:53 33° E 19:29:55 10° NNE
Cosmos 1437 Rocket 3.1 19:22:56 10° NNW 19:26:44 64° WSW 19:30:28 10° S
Cosmos 2333 Rocket 2.4 19:21:19 10° NW 19:27:08 72° NE 19:32:54 10° SE
Cosmos 407 Rocket 3.9 19:22:51 10° SW 19:28:09 72° NW 19:33:25 10° NNE
Cosmos 1570 Rocket 4.4 19:22:57 10° NW 19:28:14 64° WSW 19:33:32 10° SSE
Cosmos 1703 Rocket 3.8 19:24:56 10° NNW 19:29:17 72° W 19:33:36 10° S
Cosmos 1271 Rocket 4.3 19:27:22 10° N 19:30:32 24° NE 19:33:43 10° ESE
H-2A R/B 3.6 19:26:54 10° NNE 19:30:59 57° ESE 19:35:04 10° S
Cosmos 1190 Rocket 4.3 19:27:01 10° SW 19:32:20 77° NW 19:37:43 10° NE
deb Kosmos-1763 4.3 19:29:38 10° SW 19:33:18 75° NW 19:37:00 10° NNE
Cosmos 1140 Rocket 3.8 19:28:53 10° SW 19:34:10 77° NW 19:39:27 10° NNE
OBJECT-B 3.6 19:35:02 10° SW 19:37:17 17° W 19:39:35 10° NW
Cosmos 2084 Rocket 4.4 19:35:56 10° S 19:39:28 26° SE 19:43:04 10° ENE
Cosmos 2208 Rocket 4.4 19:34:26 10° NW 19:39:40 62° WSW 19:44:48 10° SSE
Cosmos 1633 Rocket 3.9 19:37:13 10° SSW 19:41:34 55° WNW 19:45:56 10° N
SWARM A 4.2 19:38:18 10° N 19:41:40 79° E 19:45:00 10° S
Cosmos 1184 Rocket 3.6 19:39:00 10° SSW 19:42:16 56° WNW 19:45:32 10° NNE
Landsat 7 4.5 19:38:20 10° S 19:43:01 55° WSW 19:47:44 10° NNW
SPOT 5 2.7 19:38:57 10° SSE 19:43:20 89° E 19:47:55 10° NNW
Tsikada Rocket 4.3 19:41:29 10° NNW 19:47:47 57° ENE 19:53:56 10° SE
CZ-2C R/B 3.6 19:44:46 10° NNE 19:49:46 50° WNW 19:54:47 10° SW
Cosmos 2344 4.1 19:44:24 10° WNW 19:52:35 87° NNE 20:03:37 10° ESE
USA 267 4.1 19:47:55 10° E 19:53:08 24° SE 19:58:18 10° S
OPS 6432 4.2 19:50:33 10° SW 19:53:53 58° SSE 19:56:47 10° ENE
ERBS 3.2 19:51:47 10° W 19:54:46 31° SSW 19:57:19 13° SE
Meteor 1-11 Rocket 4.5 19:49:36 10° SSE 19:54:47 37° E 20:00:06 10° NNE
Cosmos 1733 Rocket 4.3 19:52:36 11° SE 19:56:03 26° E 19:59:43 10° NNE
Meteor 2-4 Rocket 4.0 19:50:35 10° NNW 19:56:13 67° W 20:01:40 10° S
Cosmos 1605 Rocket 4.1 19:50:30 10° SSW 19:56:35 78° WNW 20:02:45 10° NNE
Cosmos 2219 Rocket 2.3 19:51:30 10° NW 19:57:14 88° NE 20:02:41 11° SE
Cosmos 540 Rocket 4.4 19:54:07 10° NW 19:59:00 44° WSW 20:03:54 10° S
Cosmos 2100 Rocket 4.1 19:53:48 10° S 19:59:50 61° E 20:05:55 10° NNE
SL-16 R/B 3.7 19:54:57 10° NW 19:59:52 31° WSW 20:04:45 10° S
NOSS 3-2 (A) 3.6 19:55:01 10° SW 20:00:58 62° SE 20:07:54 10° ENE
Lacrosse 4 Rocket 3.0 20:01:22 12° SE 20:03:28 17° ESE 20:06:08 10° ENE
Cosmos 2173 Rocket 4.1 19:57:55 10° S 20:03:56 61° E 20:09:57 10° NNE
SL-4 R/B 3.4 20:02:55 10° SW 20:05:36 18° S 20:07:25 13° SSE
ALOS 2 4.1 20:02:36 10° ESE 20:06:18 27° NE 20:10:01 10° N
BREEZE-M DEB (TANK) 4.4 20:04:03 10° SW 20:07:13 24° SSE 20:14:26 10° ESE
Meteor 1-23 Rocket 4.4 20:03:46 10° NNW 20:09:39 74° ENE 20:14:58 12° SSE
SL-27 R/B 2.3 20:06:39 10° SSW 20:09:55 59° ESE 20:13:13 10° NE
Cosmos 2322 3.9 20:04:43 10° NW 20:10:23 67° SW 20:15:30 13° SSE
Cosmos 1607 4.2 20:04:59 10° WNW 20:11:25 76° NNE 20:17:55 10° ESE
NOSS 3-2 (C) 3.7 20:05:52 10° SSW 20:11:42 54° SE 20:18:29 10° ENE
Cosmos 2346 Rocket 4.5 20:07:09 10° NNW 20:13:16 89° WSW 20:19:13 11° S
Cosmos 1242 Rocket 2.5 20:10:10 10° NNW 20:13:50 80° ENE 20:16:53 14° SSE
Meteor 1-13 Rocket 4.4 20:09:52 10° NNW 20:15:24 72° WSW 20:20:54 10° S
SAR-Lupe-2 3.7 20:12:44 10° NNE 20:16:18 53° ESE 20:19:45 10° S
Cosmos 2082 Rocket 2.7 20:10:39 10° WSW 20:16:19 67° NW 20:21:59 10° NE
Cosmos 1725 Rocket 4.4 20:10:38 10° SSE 20:16:34 49° E 20:22:37 10° NNE
Cosmos 1459 Rocket 4.1 20:10:38 10° S 20:16:56 72° E 20:23:19 10° NNE
Cosmos 2322 Rocket 3.7 20:12:18 10° NW 20:17:07 29° WSW 20:21:54 10° SSW
ERS-1 Rocket 3.7 20:16:56 10° S 20:21:48 49° W 20:26:42 10° NNW
Spot 4 4.3 20:19:11 13° SE 20:23:18 54° ENE 20:28:03 10° NNW
Cosmos 1842 4.5 20:20:01 10° N 20:23:35 31° ENE 20:26:35 13° ESE
Cosmos 2221 Rocket 3.9 20:19:25 10° NNW 20:23:53 67° W 20:28:08 11° S
Cosmos 2016 Rocket 4.2 20:17:58 10° S 20:24:12 61° E 20:30:30 10° NNE
Cosmos 1378 Rocket 3.8 20:19:48 10° N 20:24:15 63° ENE 20:27:49 15° SSE
Cosmos 2360 Rocket 3.2 20:21:23 10° NW 20:26:36 38° WSW 20:31:45 10° S
Okean 3 4.1 20:23:40 10° NNW 20:27:52 52° W 20:32:04 10° S
Cosmos 1850 Rocket 4.0 20:23:15 10° SSW 20:28:34 89° ESE 20:33:51 10° NE
SL-16 R/B 3.1 20:23:30 10° NW 20:29:02 47° NNE 20:34:32 10° ESE
Cosmos 1500 3.2 20:26:13 10° SSW 20:29:59 86° WNW 20:33:47 10° NNE
Cosmos 1536 3.2 20:27:22 15° SSE 20:30:28 46° E 20:34:18 10° NNE
Terra 2.4 20:27:56 10° S 20:32:34 55° WSW 20:37:17 10° NNW
USA 234 4.1 20:29:00 14° SSE 20:34:03 34° SW 20:39:58 10° W
Cosmos 1238 Rocket 4.5 20:34:16 10° WSW 20:36:53 26° WNW 20:39:43 10° N
ATLAS 3B R/B 3.0 20:30:57 10° SSW 20:37:00 40° SE 20:43:09 10° ENE
Cosmos 1666 2.7 20:37:36 14° S 20:40:43 65° E 20:44:29 10° NNE
COSMOS 2487 3.2 20:39:02 18° SSE 20:41:00 33° ESE 20:44:09 10° NE
Resurs 01 Rocket 4.4 20:40:54 10° WSW 20:42:54 13° W 20:44:53 10° NW
Iridium 4 Rocket 3.1 20:38:44 10° S 20:42:54 77° W 20:47:06 10° N
Cosmos 1378 3.1 20:40:15 10° NNW 20:44:02 85° ENE 20:46:39 19° SSE
Cosmos 1975 Rocket 3.8 20:42:31 10° N 20:46:51 44° ENE 20:50:09 16° SE
Cosmos 1980 3.7 20:44:41 10° NW 20:50:25 87° NE 20:55:09 15° SE
Thor Agena Rocket 4.5 20:46:43 10° NNE 20:51:17 32° E 20:54:28 17° SSE
Cosmos 1833 Rocket 4.1 20:46:46 10° W 20:52:07 42° NNW 20:57:30 10° NE
Cosmos 2297 Rocket 4.2 20:51:10 10° ESE 20:52:42 11° E 20:54:14 10° ENE
COSMOS 2428 3.1 20:47:49 10° NW 20:53:26 56° WSW 20:57:49 17° SSE
Cosmos 2233 Rocket 4.2 20:49:34 15° SSE 20:54:45 57° E 21:00:56 10° NNE
Okean 2 3.6 20:51:30 10° N 20:55:37 60° ENE 20:58:24 19° SSE
MTI 4.0 20:53:19 10° NNE 20:56:23 48° ESE 20:58:03 23° SSE
Cosmos 1867 3.8 20:51:00 10° WSW 20:56:29 75° NNW 21:02:00 10° ENE
Cosmos 2061 Rocket 4.0 20:50:56 10° S 20:57:08 87° ESE 21:03:24 10° NNE
Cosmos 1544 4.4 20:56:21 18° SE 20:58:06 26° E 21:01:12 10° NNE
Cosmos 2237 Rocket 2.2 20:52:29 10° NW 20:58:13 90° WSW 21:02:46 16° SE
Cosmos 44 Rocket 4.3 20:56:34 10° WNW 21:01:02 34° SW 21:04:15 17° S
USA 238 DEB 3.7 20:54:50 10° WSW 21:01:39 86° SSE 21:08:50 10° ENE
USA 238 3.7 20:54:57 10° WSW 21:01:44 86° SSE 21:08:55 10° ENE
Cosmos 1802 Rocket 4.2 20:55:52 10° SSW 21:02:15 80° WNW 21:08:35 10° NNE
Cosmos 1025 Rocket 4.4 20:58:34 10° N 21:02:23 30° ENE 21:05:39 13° ESE
Cosmos 1743 3.3 21:00:17 21° SSE 21:02:32 42° E 21:06:15 10° NNE
Cosmos 1975 4.2 21:00:29 17° SE 21:02:33 26° E 21:05:58 10° NNE
NOSS 0 Rocket 4.1 20:56:51 10° NW 21:03:03 68° SW 21:07:51 18° SSE
Cosmos 1869 Rocket 4.4 20:59:16 10° SW 21:03:38 51° WNW 21:08:03 10° N
CENTAUR R/B 2.7 20:58:21 10° SW 21:04:50 76° SSE 21:12:35 10° ENE
Cosmos 1271 Rocket 2.9 21:03:06 10° NNW 21:06:53 64° WSW 21:09:24 20° S
Cosmos 1674 Rocket 4.1 21:06:25 10° NNW 21:10:39 52° W 21:13:55 16° SSW
Cosmos 2333 Rocket 3.1 21:05:50 10° NW 21:11:12 40° WSW 21:15:19 16° S
ATLAS 5 CENTAUR R/B 4.0 21:11:44 10° WSW 21:13:43 15° SSW 21:14:58 14° SSW
Cosmos 2084 Rocket 3.3 21:14:12 10° WSW 21:18:28 72° SSE 21:22:51 10° ENE
Geosat 4.4 21:18:02 20° SSE 21:21:27 53° WSW 21:26:24 10° NW
Cosmos 1437 3.7 21:19:57 10° N 21:22:45 35° ENE 21:24:17 21° ESE
NOSS 5 (C) 4.4 21:21:44 10° SW 21:25:08 48° SSE 21:28:03 10° ENE
Cosmos 1486 Rocket 4.1 21:22:07 16° SSW 21:26:14 60° ESE 21:31:23 10° NE
CRYOSAT 2 4.5 21:21:26 10° N 21:26:20 76° W 21:30:14 16° SSW
DNEPR-1 R/B 4.4 21:20:26 10° WNW 21:26:45 58° SW 21:30:25 20° SSE
Cosmos 1943 4.4 21:21:53 10° NW 21:27:14 41° NNE 21:32:33 10° E
ERBS 4.3 21:28:32 10° WSW 21:30:13 14° SW 21:30:13 14° SW
Cosmos 1733 Rocket 3.4 21:29:41 13° SSW 21:33:31 67° WNW 21:37:59 10° NNE
Cosmos 1356 4.4 21:30:29 11° SW 21:33:42 44° WNW 21:37:02 10° N
Cosmos 773 Rocket 4.1 21:29:04 10° NW 21:34:11 66° WSW 21:37:32 22° SSE
USA 267 3.5 21:31:02 10° E 21:37:20 47° SSE 21:43:36 10° SW
Meteor 1-11 Rocket 4.2 21:32:17 10° SSW 21:37:59 64° WNW 21:43:52 10° NNE
Cosmos 2219 Rocket 3.4 21:35:50 10° NW 21:40:43 30° WSW 21:44:23 16° SSW
Cosmos 968 Rocket 3.5 21:37:25 17° SSW 21:41:20 66° ESE 21:46:29 10° NE
Lacrosse 4 Rocket 1.3 21:37:37 12° SW 21:41:29 65° SE 21:45:36 10° NE
ALOS 2 2.6 21:39:37 23° S 21:42:19 74° WSW 21:46:45 10° NNW
Cosmos 2227 Rocket 3.8 21:40:11 15° SE 21:42:43 20° ESE 21:46:41 10° ENE
Helios 1A 3.3 21:41:31 21° SE 21:44:16 62° ENE 21:48:28 10° NNW
Cosmos 1707 2.9 21:40:28 10° N 21:44:24 65° ENE 21:46:37 24° SSE
Cosmos 1536 Rocket 4.0 21:45:26 10° N 21:49:43 53° ENE 21:52:31 20° SE
EO 1 Del DPAF 3.3 21:47:30 10° NNE 21:51:16 64° ESE 21:53:13 26° S
NOSS 3-2 (A) 3.8 21:45:28 10° W 21:51:49 81° NNW 21:59:18 10° ENE
Cosmos 1538 Rocket 4.0 21:46:44 10° NW 21:51:55 70° WSW 21:55:15 22° SSE
Cosmos 1607 4.2 21:52:24 10° WNW 21:58:41 57° SW 22:03:21 19° SSE
Cosmos 1842 3.9 21:55:57 10° NNW 21:59:45 46° W 22:01:52 23° SSW
Cosmos 1782 Rocket 3.6 21:58:07 25° S 22:00:36 68° E 22:04:56 10° NNE
Cosmos 2082 Rocket 4.0 21:56:06 10° W 22:01:18 35° NNW 22:06:30 10° NE
Cosmos 158 Rocket 4.3 21:56:57 10° NNW 22:02:21 72° NE 22:06:53 15° SE
NOSS 3-2 (C) 3.7 21:56:06 10° WSW 22:02:26 84° NNW 22:09:52 10° ENE
Cosmos 1833 4.3 21:59:45 10° SW 22:05:26 80° NW 22:11:11 10° NE
Cosmos 1536 4.4 22:03:27 10° SW 22:07:03 32° WNW 22:10:41 10° N
Cosmos 2344 4.4 21:58:32 10° WNW 22:07:04 57° SW 22:17:17 14° SSE
Cosmos 1908 Rocket 3.7 22:04:49 20° SSW 22:07:47 72° WNW 22:12:10 10° NNE
Terra 4.2 22:09:11 10° WSW 22:11:25 13° W 22:13:39 10° NW
SL-16 R/B 2.2 22:07:50 10° NW 22:13:34 74° SW 22:17:41 19° SSE
Helios 1B rocket 4.3 22:12:50 10° NE 22:15:49 19° E 22:18:00 13° SE
COSMOS 2487 3.6 22:12:41 10° WSW 22:15:59 41° NW 22:19:18 10° NNE
Cosmos 2112 Rocket 4.1 22:11:05 10° NNW 22:16:22 76° NE 22:20:39 15° SE
MOS 1-B Rocket 4.2 22:12:21 10° NNE 22:18:00 64° WNW 22:23:10 12° SW
SL-16 R/B 3.6 22:12:15 10° ESE 22:18:03 42° NE 22:23:50 10° NNW
Cosmos 2026 Rocket 4.2 22:12:40 10° NNW 22:18:46 68° ENE 22:23:28 18° SSE
Cosmos 1975 Rocket 4.0 22:20:32 10° NNW 22:24:43 39° W 22:27:17 20° SSW
SL-24 DEB 4.4 22:21:54 10° N 22:26:42 73° W 22:29:43 22° SSW
ATLAS 3B R/B 2.6 22:20:33 10° WSW 22:27:12 85° SSE 22:33:59 10° ENE
Cosmos 1354 Rocket 4.0 22:23:58 18° SSW 22:27:57 83° ESE 22:33:20 10° NE
Thor Agena Rocket 3.8 22:25:57 10° NNE 22:31:01 68° WNW 22:35:03 17° SW
Cosmos 1300 Rocket 3.8 22:28:47 25° SSE 22:31:04 56° E 22:35:20 10° NNE
Cosmos 1680 Rocket 3.5 22:26:01 10° NW 22:31:18 84° WSW 22:35:05 19° SSE
Cosmos 724 4.3 22:26:39 10° WNW 22:32:36 71° SW 22:38:30 11° SE
Nimbus 7 Rocket 4.4 22:26:54 10° NNE 22:32:49 88° ESE 22:37:08 20° SSW
Cosmos 1544 3.8 22:30:39 20° SW 22:32:56 49° WNW 22:36:33 10° N
In-Cosmos 22 4.2 22:27:46 10° NNW 22:33:21 72° WSW 22:36:51 23° S
KORONAS-FOTON 3.9 22:30:03 10° NNW 22:33:51 69° ENE 22:35:59 25° SSE
Cosmos 2297 Rocket 2.8 22:32:11 22° S 22:35:20 42° ESE 22:40:38 10° NE
Cosmos 1743 4.1 22:35:20 13° SW 22:38:25 33° WNW 22:42:01 10° N
Cosmos 1975 3.3 22:36:14 21° SW 22:38:47 56° WNW 22:42:49 10° N
Meteor 2-9 Rocket 4.3 22:35:06 20° SSW 22:39:14 80° WNW 22:45:07 10° NNE
Cosmos 1627 Rocket 4.5 22:33:40 10° NNW 22:39:53 88° ENE 22:44:24 20° SSE
Cosmos 1025 Rocket 3.3 22:36:04 10° NNW 22:40:17 56° W 22:42:32 26° SSW
Cosmos 1867 4.2 22:35:09 10° WNW 22:40:36 60° N 22:46:02 10° E
Cosmos 2237 Rocket 3.3 22:36:58 10° NW 22:41:45 29° WSW 22:44:34 19° SSW
Cosmos 1777 Rocket 4.3 22:39:10 23° S 22:42:19 56° ESE 22:47:31 10° NE
Timation 2 Rocket 4.0 22:39:51 20° SSW 22:44:04 62° SE 22:49:59 10° NE
Meteor 2-13 Rocket 4.5 22:39:23 10° NNW 22:45:31 78° W 22:49:46 21° S
Cosmos 1634 Rocket 4.5 22:41:33 19° SSE 22:45:52 52° E 22:51:52 10° NNE
SJ 16-02 2.8 22:47:38 18° SE 22:49:48 26° ESE 22:53:28 10° NE
Cosmos 2219 3.4 22:46:31 22° S 22:49:58 54° ESE 22:55:27 10° NE
Nadezhda 4 Rocket 4.4 22:44:41 10° NNW 22:50:46 52° W 22:54:56 20° SSW
Cosmos 1464 Rocket 4.1 22:46:12 19° SSW 22:50:50 72° WNW 22:57:00 10° NNE
Okean 1 Rocket 4.0 22:50:07 20° SSE 22:52:40 39° E 22:56:47 10° NNE
Meteor 1-24 Rocket 3.9 22:47:18 10° NNW 22:52:46 68° ENE 22:57:07 16° SSE
USA 238 DEB 4.0 22:46:01 10° W 22:52:56 76° N 23:00:13 10° E
USA 238 4.0 22:46:06 10° W 22:53:02 76° N 23:00:19 10° E
Cosmos 2333 Rocket 4.5 22:52:47 10° W 22:53:58 11° W 22:55:10 10° WSW
Cosmos 1603 3.8 22:48:28 10° NW 22:54:17 84° NE 23:00:02 10° SE
Cosmos 1674 2.6 22:51:27 10° NNW 22:55:13 76° WSW 22:57:04 28° S
Cosmos 1437 4.0 22:53:01 10° NW 22:55:33 25° W 22:56:20 22° WSW
CENTAUR R/B 3.1 22:48:52 10° W 22:55:47 78° N 23:03:57 10° E
Okean 2 Rocket 3.1 22:53:44 25° SSW 22:56:23 90° SSE 23:00:58 10° NNE
Cosmos 2084 Rocket 3.7 22:53:43 10° W 22:58:03 74° N 23:02:30 10° E
CZ-2D R/B 4.0 22:56:09 10° NE 23:00:24 22° E 23:04:37 10° SE
Cosmos 1503 Rocket 4.4 22:58:15 12° SW 23:03:13 63° NW 23:08:34 10° NNE
Cosmos 923 Rocket 4.5 22:59:31 10° NW 23:04:39 47° WSW 23:07:42 22° S
MINOTAUR 4 R/B 4.4 23:03:33 29° SSW 23:05:05 52° WSW 23:08:35 10° NNW
Cosmos 2266 Rocket 4.5 23:04:52 10° NNW 23:11:12 61° ENE 23:17:23 10° SSE
Okean 1-7 Rocket 4.1 23:06:54 10° N 23:11:18 56° ENE 23:15:00 14° SSE
Cosmos 1943 3.2 23:06:12 10° NW 23:11:53 90° SW 23:17:31 10° SE
Cosmos 1092 Rocket 4.3 23:06:31 10° NNW 23:12:34 55° W 23:16:44 20° SSW
NOSS 5 (C) 4.5 23:11:16 10° W 23:14:26 65° N 23:17:24 10° ENE
Cosmos 1626 2.1 23:12:37 10° NNW 23:16:22 84° ENE 23:18:35 23° SSE
Sich 1 Rocket 4.2 23:15:13 18° SW 23:18:11 47° WNW 23:22:28 10° N
Cosmos 1707 4.4 23:16:51 10° NW 23:19:56 22° W 23:21:46 16° WSW
Helios 1A 4.3 23:18:09 19° SW 23:20:09 27° W 23:23:49 10° NW
Lacrosse 4 Rocket 2.4 23:16:18 10° W 23:20:22 46° NNW 23:24:22 10° NE
USA 267 3.2 23:14:34 10° E 23:21:04 62° S 23:27:33 10° WSW
Cosmos 2034 Rocket 4.3 23:19:27 18° SSW 23:24:16 62° WNW 23:30:37 10° NNE
Cosmos 1892 Rocket 3.6 23:20:08 10° NNW 23:24:38 84° ENE 23:27:50 19° SSE
Cosmos 2098 Rocket 4.0 23:20:40 10° NNW 23:25:51 70° ENE 23:32:02 11° SSE
Cosmos 2227 Rocket 2.3 23:22:00 21° SSW 23:25:52 67° SE 23:31:31 10° NE
Cosmos 1733 3.9 23:24:08 21° SSE 23:26:22 47° E 23:30:07 10° NNE
Cosmos 1461 4.0 23:24:34 22° S 23:26:39 33° SE 23:30:48 10° ENE
MOZ.5/SAFIR/RUBIN 5/SL-8 3.8 23:23:33 17° SSE 23:27:14 88° ENE 23:31:59 10° NNW
Cosmos 1766 3.6 23:26:28 23° SSE 23:28:41 56° E 23:32:30 10° NNE
Cosmos 2151 Rocket 3.7 23:26:48 22° SSW 23:29:33 67° WNW 23:33:58 10° NNE
Resurs 1-4 Rocket 3.4 23:26:24 10° NNE 23:31:07 32° E 23:35:32 11° SSE
OPS 6432 4.0 23:29:20 10° WNW 23:32:15 87° NNE 23:35:23 10° ESE
Meteor 2-5 Rocket 3.8 23:27:27 10° NNW 23:33:01 61° W 23:36:52 20° S
Landsat 4 3.7 23:29:52 10° NNE 23:33:41 82° WNW 23:35:51 24° SSW
Cosmos 1048 Rocket 4.3 23:29:28 10° NNW 23:34:38 67° NE 23:39:47 10° SE
Cosmos 1900 4.4 23:32:29 10° WNW 23:37:38 86° SSW 23:42:48 10° SE
UNK 3.8 23:35:51 14° SSE 23:39:54 83° ENE 23:44:37 10° NNW
Cosmos 1470 4.2 23:39:13 13° SSE 23:42:12 32° E 23:45:48 10° NNE
NOSS 3-2 (A) 3.9 23:36:26 10° WNW 23:43:09 82° NNE 23:51:01 10° ESE
Cosmos 2082 Rocket 4.1 23:41:38 10° NW 23:46:47 33° N 23:51:53 10° ENE
COBE Rocket 4.4 23:42:35 10° SE 23:47:08 57° ENE 23:51:45 10° N
Cosmos 1805 3.2 23:45:52 23° SSW 23:48:11 88° W 23:52:07 10° NNE
Helios 1B rocket 2.4 23:47:31 10° NNE 23:51:39 86° WNW 23:54:18 21° SSW
PSLV R/B 4.0 23:47:02 10° NNE 23:51:42 67° WNW 23:55:06 19° SW
Spot 1 4.0 23:49:42 20° S 23:52:22 60° WSW 23:56:28 10° NNW
Cosmos 2082 3.8 23:48:46 19° SSW 23:52:47 65° ESE 23:58:21 10° NE
Cosmos 1937 Rocket 4.4 23:49:29 16° S 23:53:21 40° ESE 23:58:17 10° NE
Cosmos 990 Rocket 4.4 23:50:28 18° S 23:54:04 52° ESE 23:59:05 10° NE
